Theta_e
331 331 332 331 329 329 326 326 323 323 320 321 323 322 322 321 320 319 319 319 318 321 323 323 322 322 321 320 320 321 323 325 324 324 324 325 325 325 326 326 327 327 327
326 328 327 328 325 323 322 323 323 321 320 320 321 322 321 320 319 319 319 320 319 316 320 321 322 320 321 319 320 321 323 324 324 323 323 323 323 324 324 326 327 327 327
325 326 324 323 323 323 323 322 321 321 320 321 319 319 318 318 318 318 319 318 320 318 317 317 317 320 320 319 320 320 323 322 322 321 321 321 321 322 322 323 325 325 326
320 320 321 322 323 323 322 321 320 318 318 315 314 314 315 318 318 318 317 318 318 320 320 317 317 314 315 319 319 321 322 319 320 320 319 319 319 319 319 321 322 323 324
313 313 314 316 318 319 320 321 320 318 316 313 313 314 316 317 318 317 317 317 317 317 320 318 317 316 313 314 317 320 319 319 319 319 318 317 316 317 318 318 319 320 322
319 321 320 321 320 321 320 319 320 317 315 315 312 316 318 318 317 316 316 315 315 315 316 317 316 318 317 315 316 317 318 318 317 317 317 316 315 315 316 317 318 320 320
314 315 315 315 318 320 322 322 321 320 318 316 318 316 316 317 317 316 315 314 314 314 315 314 315 317 317 316 315 315 316 316 317 317 316 315 314 314 315 316 317 318 319
313 313 314 315 315 317 317 320 320 320 318 317 316 316 317 317 315 316 314 313 314 313 315 316 316 316 316 316 315 315 315 314 315 315 314 314 313 313 314 316 316 317 317
312 312 314 314 315 316 316 319 321 320 318 317 317 316 320 319 316 314 314 314 314 313 314 316 316 316 315 315 315 314 313 312 313 314 313 313 312 312 313 314 315 315 316
311 312 314 314 315 315 315 317 318 319 319 317 317 316 317 317 320 319 314 314 313 313 313 312 314 316 315 314 313 313 312 310 311 311 311 311 311 311 311 312 313 314 315
311 313 314 315 315 315 315 317 317 319 318 318 317 318 318 317 316 317 318 316 314 312 312 311 312 314 314 313 312 312 311 309 310 310 309 309 309 309 310 309 310 311 311
311 313 314 314 315 316 316 316 316 318 317 318 317 317 317 317 317 316 317 316 315 313 312 311 313 314 313 313 312 310 310 307 308 307 308 307 307 307 308 308 308 309 309
311 313 313 314 314 314 314 315 315 316 316 316 316 316 317 315 315 315 316 314 314 312 312 313 313 312 311 311 310 308 310 307 306 307 306 303 305 305 306 306 306 307 307
311 312 313 313 314 314 314 314 313 314 315 316 316 316 315 314 313 315 315 314 313 312 312 313 312 310 310 309 308 307 309 306 306 306 305 302 301 304 304 304 304 304 305
310 311 312 312 312 312 312 312 312 313 313 315 316 315 314 313 314 316 315 313 311 314 313 312 311 309 308 308 307 306 306 306 305 305 303 302 302 302 301 303 303 303 303
310 310 311 311 311 312 311 311 310 308 311 312 313 312 313 313 314 314 314 312 312 312 312 311 311 308 308 308 306 305 306 304 303 303 302 302 302 302 301 300 302 302 302
309 309 309 307 308 310 310 310 307 309 308 310 313 313 314 313 312 314 312 313 313 311 310 311 309 307 308 307 306 305 308 308 308 305 304 303 303 302 301 301 300 301 302
307 308 308 308 308 308 310 310 310 310 310 311 312 313 312 311 312 312 312 313 312 310 308 309 307 307 308 307 306 308 308 307 307 307 305 303 302 302 301 300 300 299 299
306 307 307 308 308 309 309 308 309 309 309 310 310 311 312 312 312 312 313 313 311 310 307 307 308 309 308 307 305 309 309 308 308 308 308 306 305 304 303 303 303 301 299
306 307 307 308 308 308 307 309 309 309 309 309 309 310 311 311 310 310 311 310 309 309 308 309 310 311 310 307 307 309 310 309 309 309 308 308 308 307 306 305 305 303 301
307 307 307 307 308 307 304 306 309 309 310 310 310 311 311 309 307 307 309 310 309 309 310 312 313 312 310 310 310 310 309 310 310 310 308 309 308 308 308 306 306 304 303
308 308 308 308 309 307 305 305 308 309 309 309 310 310 310 308 308 308 309 308 308 309 311 312 312 312 312 312 311 311 311 311 311 309 311 309 309 309 308 308 306 305 304
306 305 306 307 308 307 305 305 307 308 309 309 309 309 310 310 309 308 309 311 311 310 309 312 312 311 311 312 312 312 312 313 312 312 310 311 310 309 309 309 306 305 305
309 307 307 306 307 306 305 306 306 306 307 308 310 311 311 311 310 310 312 312 311 310 310 311 313 313 311 309 310 311 311 312 312 312 310 311 310 310 309 309 307 306 306
308 308 309 310 309 307 307 307 309 309 310 311 312 310 312 308 308 309 312 312 312 312 310 310 310 308 307 306 309 309 312 312 311 311 308 310 309 310 310 310 308 306 306
309 310 311 311 310 308 307 308 310 309 312 313 311 308 303 305 308 310 313 313 312 312 313 313 313 314 314 311 313 312 314 313 313 311 311 310 310 311 310 310 309 308 307
Wind_Speed
11 7 5 9 10 9 11 9 12 14 14 10 17 12 12 13 11 11 10 9 8 3 4 3 1 2 4 6 8 9 10 10 9 7 7 4 6 8 10 11 12 11 11
10 8 6 6 7 7 12 16 18 18 11 13 19 11 13 13 10 10 11 9 5 4 4 1 2 3 5 7 8 9 10 7 4 4 6 7 9 10 10 11 11 11 11
6 6 10 12 13 18 20 21 20 16 11 10 13 13 13 13 14 10 10 8 6 6 8 9 5 3 5 6 9 9 7 4 4 6 7 9 9 10 11 12 12 12 11
9 9 7 7 9 9 10 12 11 9 8 12 12 16 17 16 14 10 9 7 9 4 8 4 4 7 5 5 6 9 6 4 5 7 7 9 11 10 12 12 13 13 13
9 10 11 13 12 11 11 13 15 11 11 12 16 16 17 15 11 10 6 8 9 7 1 3 5 6 6 5 5 6 7 5 5 6 8 10 13 13 13 14 15 15 15
12 11 13 11 8 11 12 13 11 11 12 15 16 19 15 11 10 9 6 8 7 7 10 4 8 4 3 4 3 5 6 8 10 9 7 10 14 15 16 16 16 15 14
14 14 15 14 11 16 13 13 13 11 13 14 14 14 17 12 8 9 6 5 6 7 8 9 8 6 4 2 4 5 7 9 11 10 9 11 12 15 16 16 16 15 14
14 16 16 16 15 17 17 14 14 13 13 9 11 15 7 3 6 10 6 6 0 7 3 4 5 5 6 7 1 2 6 10 11 10 11 12 14 16 17 16 15 14 13
14 15 15 14 15 15 16 11 11 12 13 12 11 9 3 2 7 9 12 5 2 6 3 4 4 2 5 8 8 4 7 9 10 10 11 12 15 16 16 17 15 14 13
12 15 11 14 14 15 16 11 9 9 12 13 6 8 13 10 3 1 3 4 4 4 3 6 6 2 2 4 7 5 8 10 9 8 10 11 13 15 16 16 16 15 14
11 11 10 12 12 12 13 11 9 7 9 8 7 6 6 7 7 5 4 4 5 6 6 8 8 1 2 4 7 6 8 11 9 6 9 10 12 14 15 15 15 15 14
15 10 10 12 10 9 9 9 7 7 8 9 8 4 5 4 4 4 3 3 6 5 9 9 2 5 4 5 5 8 10 10 8 7 7 9 11 11 13 15 16 14 13
15 15 13 11 10 9 8 9 9 7 8 9 9 4 3 6 7 0 2 3 5 5 4 4 6 5 6 8 7 10 10 10 7 5 6 10 10 10 11 14 15 15 14
15 14 11 8 8 8 9 10 8 9 8 6 6 2 2 2 4 4 2 6 7 2 2 3 4 6 10 8 8 10 9 10 6 4 6 8 10 11 11 13 15 16 16
16 14 9 8 8 9 10 9 10 11 8 6 5 2 2 3 3 3 3 5 9 5 6 2 3 8 12 9 12 11 11 8 7 3 4 7 10 12 12 12 14 15 17
12 10 10 10 8 9 9 9 10 12 9 7 5 2 2 3 5 3 3 6 6 7 5 11 10 12 14 14 12 11 9 5 1 2 5 9 12 12 13 13 13 15 16
10 9 9 11 10 8 7 6 8 8 9 8 5 3 3 1 4 4 6 4 5 4 9 9 10 17 11 11 12 11 7 6 5 5 9 10 10 9 10 11 12 13 15
9 9 9 8 9 11 8 6 4 4 5 6 7 7 7 7 7 8 8 11 8 8 8 9 12 14 10 10 10 6 4 3 5 8 5 4 4 5 5 7 10 13 17
7 10 10 10 8 8 9 9 10 9 7 7 6 9 11 11 12 12 11 10 9 8 11 7 9 11 8 8 6 5 6 8 7 10 11 8 6 7 6 7 10 13 15
8 9 9 10 9 9 9 10 9 7 8 6 6 7 8 10 10 10 10 9 10 8 6 8 10 6 3 3 5 7 6 6 7 5 7 7 13 12 9 8 9 12 14
9 8 8 7 8 10 11 11 11 10 8 7 9 10 10 9 9 7 6 8 6 6 7 9 7 3 3 1 1 3 7 6 5 5 6 8 8 6 9 7 5 11 13
13 13 12 11 11 9 11 10 9 8 8 7 8 8 8 8 7 9 8 7 5 6 8 7 6 7 5 5 5 9 10 11 7 4 7 8 7 3 6 8 6 10 12
14 15 12 11 11 10 10 10 9 8 7 6 7 8 9 8 9 8 8 8 5 6 4 6 10 9 8 8 9 10 10 11 9 7 8 9 7 6 5 5 5 8 9
11 11 11 11 10 11 10 11 12 9 8 8 7 7 8 9 5 6 7 3 4 4 3 5 5 6 6 7 9 11 17 13 7 3 9 5 10 14 8 7 3 3 8
9 9 10 10 11 11 11 13 10 8 9 8 8 7 6 8 4 11 12 8 8 6 4 7 6 5 6 8 9 9 12 14 12 8 13 8 10 18 4 4 5 6 2
11 10 9 9 14 15 12 9 6 4 5 7 9 8 9 8 7 8 10 11 9 11 13 12 7 13 10 9 11 12 5 11 12 8 6 11 9 10 7 10 1 5 5
Wind_Direction
345 353 351 344 4 11 14 11 356 342 329 321 303 307 303 304 305 302 311 304 331 328 32 70 57 35 0 360 358 348 338 326 320 322 327 352 349 343 335 333 333 327 304
324 353 345 351 351 335 327 324 318 318 311 309 303 293 297 297 294 292 303 295 284 260 239 5 16 357 345 345 353 349 348 347 340 3 4 3 356 346 343 339 331 323 317
307 315 299 291 291 291 296 298 300 289 282 303 298 297 301 292 288 288 295 292 268 244 237 245 263 324 341 349 349 347 351 358 22 16 8 354 355 348 339 335 334 336 339
326 324 317 311 314 289 286 305 279 269 268 279 281 287 294 286 282 288 279 295 293 279 193 213 284 295 301 328 348 345 349 325 4 14 4 358 354 347 338 334 327 325 321
353 344 324 307 290 282 283 268 261 256 255 262 280 283 277 277 276 282 294 288 281 271 224 184 321 296 275 289 322 351 344 349 360 357 352 355 348 345 339 331 322 317 316
327 315 311 290 289 279 268 254 241 237 242 271 269 275 278 273 279 274 276 288 291 310 291 315 312 235 265 302 339 5 349 358 354 337 353 354 348 343 337 331 322 317 314
324 310 307 308 285 264 259 250 243 233 243 240 258 269 257 242 254 262 254 303 331 311 315 306 305 311 280 348 33 23 358 2 348 343 357 354 341 341 334 323 320 317 313
327 320 329 310 313 308 295 276 253 244 239 250 259 290 292 144 237 245 245 265 83 302 320 336 350 319 311 303 270 38 16 4 354 351 350 350 343 340 334 327 318 311 312
321 306 302 297 298 294 295 295 278 236 241 242 241 267 283 286 220 192 236 236 289 297 287 288 289 300 315 313 328 335 11 357 353 346 344 347 341 338 339 336 328 320 316
308 311 309 298 300 293 296 305 285 247 253 272 239 274 287 321 316 292 234 149 248 304 247 294 246 219 267 296 320 349 359 352 353 343 341 344 343 344 343 338 338 336 334
319 294 313 305 308 301 301 307 300 265 268 269 281 278 261 274 278 302 281 320 278 280 286 308 321 24 70 329 324 8 358 345 347 348 346 344 345 348 347 348 341 337 332
325 322 327 314 316 317 326 328 320 294 279 264 266 265 262 253 241 254 286 308 290 271 297 307 40 20 356 8 7 353 344 344 349 355 360 354 347 341 341 343 343 339 332
331 337 330 327 335 336 345 347 345 333 290 268 263 268 233 244 240 166 317 301 268 292 311 55 37 27 354 339 345 340 335 331 341 1 357 355 1 356 349 348 344 345 340
335 332 338 347 360 14 20 10 1 344 321 300 283 267 259 266 331 7 300 308 302 330 269 358 62 34 1 354 2 348 329 333 326 341 346 359 5 5 4 353 357 357 349
329 338 343 6 23 37 43 34 27 21 26 31 39 84 308 359 3 338 307 285 313 324 313 4 64 12 358 337 342 319 310 303 305 299 334 352 357 359 355 351 351 355 357
343 4 29 32 38 42 42 45 41 42 43 38 31 25 315 335 345 311 276 316 342 330 305 25 12 5 347 338 322 313 305 307 329 342 341 332 330 334 344 348 347 346 347
8 11 35 37 34 27 29 37 42 34 24 14 351 321 299 319 2 345 328 338 354 2 328 344 351 341 335 322 320 313 285 256 267 296 346 344 340 328 324 328 336 342 343
3 5 22 22 21 16 356 357 9 5 352 348 1 15 27 14 349 13 351 7 23 36 11 337 335 332 312 315 314 287 277 282 247 277 305 329 352 338 332 342 347 351 352
14 6 354 5 12 11 5 349 341 343 341 329 340 351 1 26 25 11 14 20 35 17 6 337 306 305 296 313 319 286 272 276 284 257 289 258 281 293 317 333 350 351 349
4 352 4 21 20 22 19 4 9 357 354 349 0 356 32 26 16 5 25 24 15 5 337 305 298 291 314 314 263 289 297 265 296 295 265 283 278 273 286 310 328 342 344
20 21 33 36 38 43 21 11 7 24 21 30 20 44 42 31 23 27 21 18 19 352 315 290 297 124 67 240 207 294 308 317 285 281 354 303 272 252 261 263 297 323 337
28 31 25 23 31 30 15 28 28 21 28 32 28 27 24 20 30 34 38 29 16 337 331 348 4 44 41 32 356 340 346 353 360 23 357 315 260 263 249 236 309 351 356
31 33 30 32 33 29 30 37 56 48 54 56 49 42 45 35 41 37 18 15 351 4 16 337 9 24 16 6 346 342 339 327 314 303 350 341 9 261 238 249 276 357 10
30 19 23 27 33 29 46 57 54 64 65 59 57 42 36 38 41 3 329 352 63 42 347 360 356 349 338 328 331 323 307 311 312 309 335 355 345 324 25 267 273 342 30
24 22 30 32 44 41 62 64 59 54 56 52 45 38 21 46 31 2 4 55 58 38 352 358 350 346 328 310 317 320 342 352 1 11 6 2 341 344 324 208 251 230 106
60 58 58 48 58 55 64 51 28 49 67 85 77 64 57 59 48 21 9 10 11 3 344 337 342 321 310 333 313 287 322 329 332 337 6 346 308 357 333 9 52 242 227